Torna al catalogo

STARLINK-31053

AttivoComunicazioniVLEO
NORAD 58549·PAYLOAD·🇺🇸 United States

Lanciato Dec 8, 2023 da Vandenberg Space Force Base

Loading…

Prossimi Passaggi (prossime 24 ore)

TLE

AggiornatoSource: CelesTrak SupGP

Epoca: Sep 14, 2026, 21:35 UTC

1 58549C 23192U   26257.89979167  .00049298  00000+0  14567-2 0  2579
2 58549  53.1573 259.9116 0001364  92.1599 142.8388 15.34363077    13

Traccia STARLINK-31053 in tempo reale con AllMySat

Download on the App Store